Ogallala, NE

12:36 AM MST on February 21, 2018 (GMT -0700)
Searle

Weather History for KOGA - September, 2013

Change the Weather History Date:

Monday, September 30, 2013

  Actual Average Record
Temperature  
Mean Temperature 66 °F -  
Max Temperature 88 °F 75 °F 90 °F (1967)
Min Temperature 43 °F 41 °F 23 °F (1974)
Growing Degree Days 16 (Base 50)    
Moisture  
Dew Point 41 °F    
Average Humidity 52    
Maximum Humidity 91    
Minimum Humidity 13    
Precipitation  
Precipitation 0.00 in - - ()
Sea Level Pressure  
Sea Level Pressure 29.79 in    
Wind  
Wind Speed 5 mph (WSW)    
Max Wind Speed 17 mph    
Max Gust Speed 22 mph    
Visibility 10 miles    
Events      
Averages and records for this station are not official NWS values.
T = Trace of Precipitation, MM = Missing Value Source: NWS Daily Summary

Daily Weather History Graph

Daily Weather History Graph

Search for Another Location

Airport or City:

Trip Planner

Search our weather history database for the weather conditions in past years. The results will help you decide how hot, cold, wet, or windy it might be!

Date:

Astronomy

Sep. 30, 2013 Rise Set
Actual Time 6:43 AM MDT 6:30 PM MDT
Civil Twilight 6:15 AM MDT 6:57 PM MDT
Nautical Twilight 5:43 AM MDT 7:29 PM MDT
Astronomical Twilight 5:11 AM MDT 8:01 PM MDT
Moon 2:19 AM MDT (9/30) 4:03 PM MDT (9/30)
Length of Visible Light 12h 42m
Length of Day
11h 47m
Waning Crescent, 18% of the Moon is Illuminated
Sep 30
Waning Crescent
Oct 4
New
Oct 11
First Quarter
Oct 18
Full
Oct 26
Last Quarter

Hourly Weather History & Observations

Time (MDT) Temp. Windchill Dew Point Humidity Pressure Visibility Wind Dir Wind Speed Gust Speed Precip Events Conditions
12:15 AM 49.6 °F - 43.0 °F 78% 29.84 in 10.0 mi WSW 3.5 mph - N/A   Clear
12:35 AM 48.4 °F - 42.4 °F 80% 29.84 in 10.0 mi Calm Calm - N/A   Clear
12:55 AM 48.2 °F - 42.4 °F 80% 29.84 in 10.0 mi West 3.5 mph - N/A   Clear
1:15 AM 47.1 °F - 43.7 °F 88% 29.85 in 10.0 mi Calm Calm - N/A   Clear
1:35 AM 46.6 °F - 43.5 °F 89% 29.85 in 10.0 mi Calm Calm - N/A   Clear
1:55 AM 48.0 °F - 44.1 °F 86% 29.85 in 10.0 mi West 4.6 mph - N/A   Clear
2:15 AM 46.8 °F - 43.2 °F 87% 29.84 in 10.0 mi WNW 3.5 mph - N/A   Clear
2:35 AM 46.9 °F - 43.7 °F 88% 29.85 in 10.0 mi WNW 3.5 mph - N/A   Clear
2:55 AM 47.5 °F - 43.0 °F 84% 29.85 in 10.0 mi SW 4.6 mph - N/A   Clear
3:15 AM 48.2 °F - 44.1 °F 86% 29.85 in 10.0 mi SSW 4.6 mph - N/A   Clear
3:35 AM 49.3 °F - 43.7 °F 81% 29.84 in 10.0 mi WSW 5.8 mph - N/A   Clear
3:55 AM 46.4 °F 43.5 °F 43.0 °F 88% 29.84 in 10.0 mi West 5.8 mph - N/A   Clear
4:15 AM 48.2 °F - 43.3 °F 83% 29.84 in 10.0 mi West 6.9 mph - N/A   Clear
4:35 AM 46.9 °F - 43.0 °F 86% 29.83 in 10.0 mi WSW 5.8 mph - N/A   Clear
4:55 AM 47.7 °F - 42.8 °F 83% 29.82 in 10.0 mi Calm Calm - N/A   Clear
5:15 AM 46.4 °F 43.5 °F 42.8 °F 87% 29.82 in 10.0 mi West 5.8 mph - N/A   Clear
5:35 AM 46.8 °F - 43.0 °F 87% 29.83 in 10.0 mi NW 4.6 mph - N/A   Clear
5:55 AM 46.6 °F - 42.1 °F 84% 29.83 in 10.0 mi SW 4.6 mph - N/A   Clear
6:15 AM 46.2 °F - 42.6 °F 87% 29.82 in 10.0 mi Calm Calm - N/A   Clear
6:35 AM 45.3 °F - 41.5 °F 87% 29.82 in 10.0 mi Calm Calm - N/A   Clear
6:55 AM 43.9 °F 42.3 °F 41.4 °F 91% 29.83 in 10.0 mi West 3.5 mph - N/A   Clear
7:15 AM 45.0 °F - 42.6 °F 91% 29.83 in 10.0 mi Calm Calm - N/A   Clear
7:35 AM 46.6 °F - 43.7 °F 90% 29.82 in 10.0 mi WSW 4.6 mph - N/A   Clear
7:55 AM 48.6 °F - 45.3 °F 89% 29.82 in 10.0 mi WSW 3.5 mph - N/A   Clear
8:15 AM 52.0 °F - 47.1 °F 83% 29.82 in 10.0 mi WSW 5.8 mph - N/A   Clear
8:35 AM 55.4 °F - 47.5 °F 75% 29.82 in 10.0 mi West 5.8 mph - N/A   Clear
8:55 AM 56.8 °F - 47.3 °F 70% 29.83 in 10.0 mi West 4.6 mph - N/A   Clear
9:15 AM 59.2 °F - 47.1 °F 64% 29.82 in 10.0 mi West 5.8 mph - N/A   Clear
9:35 AM 62.6 °F - 47.3 °F 57% 29.83 in 10.0 mi West 6.9 mph - N/A   Clear
9:55 AM 64.6 °F - 46.6 °F 52% 29.83 in 10.0 mi West 8.1 mph - N/A   Clear
10:15 AM 68.0 °F - 46.4 °F 46% 29.83 in 10.0 mi West 9.2 mph - N/A   Clear
10:35 AM 71.2 °F - 43.9 °F 37% 29.83 in 10.0 mi West 8.1 mph - N/A   Clear
10:55 AM 72.9 °F - 44.8 °F 37% 29.83 in 10.0 mi West 6.9 mph - N/A   Clear
11:15 AM 75.0 °F - 46.0 °F 36% 29.82 in 10.0 mi West 6.9 mph - N/A   Clear
11:35 AM 77.9 °F - 45.3 °F 31% 29.81 in 10.0 mi West 5.8 mph - N/A   Clear
11:55 AM 79.9 °F - 43.5 °F 28% 29.81 in 10.0 mi West 4.6 mph - N/A   Clear
12:15 PM 81.5 °F - 43.7 °F 26% 29.80 in 10.0 mi WSW 4.6 mph - N/A   Clear
12:35 PM 84.2 °F - 42.3 °F 23% 29.79 in 10.0 mi SW 5.8 mph - N/A   Clear
12:55 PM 86.4 °F - 32.0 °F 14% 29.77 in 10.0 mi SW 12.7 mph 18.4 mph N/A   Clear
1:15 PM 87.1 °F - 32.4 °F 14% 29.77 in 10.0 mi SSW 15.0 mph 19.6 mph N/A   Clear
1:35 PM 87.6 °F - 32.7 °F 14% 29.76 in 10.0 mi South 12.7 mph 21.9 mph N/A   Clear
1:55 PM 87.6 °F - 32.2 °F 14% 29.75 in 10.0 mi SSW 17.3 mph 20.7 mph N/A   Clear
2:15 PM 87.3 °F - 32.0 °F 14% 29.75 in 10.0 mi SSW 13.8 mph - N/A   Clear
2:35 PM 87.1 °F - 31.6 °F 14% 29.74 in 10.0 mi SSW 15.0 mph 21.9 mph N/A   Clear
2:55 PM 88.2 °F - 31.1 °F 13% 29.73 in 10.0 mi SSW 16.1 mph 19.6 mph N/A   Clear
3:15 PM 88.3 °F - 31.1 °F 13% 29.72 in 10.0 mi South 16.1 mph 20.7 mph N/A   Clear
3:35 PM 87.6 °F - 30.6 °F 13% 29.72 in 10.0 mi South 13.8 mph 19.6 mph N/A   Clear
3:55 PM 87.6 °F - 31.1 °F 13% 29.71 in 10.0 mi SSW 15.0 mph - N/A   Clear
4:15 PM 87.8 °F - 31.1 °F 13% 29.71 in 10.0 mi SSW 12.7 mph - N/A   Clear
4:35 PM 87.8 °F - 31.6 °F 13% 29.71 in 10.0 mi SSW 11.5 mph 16.1 mph N/A   Clear
4:55 PM 87.1 °F - 32.0 °F 14% 29.71 in 10.0 mi SSW 13.8 mph 17.3 mph N/A   Clear
5:15 PM 86.4 °F - 32.4 °F 14% 29.71 in 10.0 mi SSW 5.8 mph - N/A   Clear
5:35 PM 85.1 °F - 32.0 °F 15% 29.71 in 10.0 mi SSW 8.1 mph - N/A   Clear
5:55 PM 82.6 °F - 34.7 °F 18% 29.71 in 10.0 mi SSW 6.9 mph - N/A   Clear
6:15 PM 79.2 °F - 36.5 °F 22% 29.71 in 10.0 mi South 4.6 mph - N/A   Clear
6:35 PM 74.8 °F - 36.7 °F 25% 29.71 in 10.0 mi South 5.8 mph - N/A   Clear
6:55 PM 73.0 °F - 36.7 °F 27% 29.72 in 10.0 mi Calm Calm - N/A   Clear
7:15 PM 70.9 °F - 37.4 °F 29% 29.73 in 10.0 mi Calm Calm - N/A   Clear
7:35 PM 70.0 °F - 38.3 °F 31% 29.73 in 10.0 mi Calm Calm - N/A   Clear
7:55 PM 67.8 °F - 39.6 °F 36% 29.74 in 10.0 mi SSW 3.5 mph - N/A   Clear
8:15 PM 65.1 °F - 39.7 °F 39% 29.75 in 10.0 mi Calm Calm - N/A   Clear
8:35 PM 66.4 °F - 40.8 °F 39% 29.76 in 10.0 mi Calm Calm - N/A   Clear
8:55 PM 65.8 °F - 43.0 °F 43% 29.76 in 10.0 mi WSW 3.5 mph - N/A   Clear
9:15 PM 62.2 °F - 43.9 °F 51% 29.77 in 10.0 mi West 4.6 mph - N/A   Clear
9:35 PM 61.0 °F - 44.8 °F 55% 29.77 in 10.0 mi WNW 4.6 mph - N/A   Clear
9:55 PM 64.8 °F - 45.5 °F 50% 29.77 in 10.0 mi SSW 5.8 mph - N/A   Clear
10:15 PM 64.4 °F - 46.4 °F 52% 29.78 in 10.0 mi West 5.8 mph - N/A   Clear
10:35 PM 63.5 °F - 46.8 °F 54% 29.78 in 10.0 mi SW 3.5 mph - N/A   Clear
10:55 PM 61.9 °F - 46.4 °F 57% 29.79 in 10.0 mi WNW 5.8 mph - N/A   Clear
11:15 PM 60.8 °F - 46.4 °F 59% 29.80 in 10.0 mi West 5.8 mph - N/A   Clear
11:35 PM 59.2 °F - 46.4 °F 63% 29.80 in 10.0 mi Calm Calm - N/A   Clear
11:55 PM 57.7 °F - 46.4 °F 66% 29.82 in 10.0 mi Calm Calm - N/A   Clear